Location: Red Rock Canyon
(36.1333°N, 115.4333°W)
Time: 02:29:59
(UTC-08:00)

ISS - Visible Passes

Search period start: 07 December 2016 00:00
Search period end: 17 December 2016 00:00
Orbit: 401 x 410 km, 51.6° (Epoch: 07 December)

Date Brightness Start Highest point End Pass type
(mag) Time Alt. Az. Time Alt. Az. Time Alt. Az.
14 Dec -0.8 18:01:25 10° NNW 18:01:56 12° N 18:01:56 12° N visible
15 Dec -1.0 17:10:13 10° N 17:11:13 11° NNE 17:12:13 10° NE visible
15 Dec -0.2 18:45:01 10° NW 18:45:01 10° NW 18:45:01 10° NW visible
16 Dec -2.2 17:53:07 10° NNW 17:55:35 29° NNE 17:55:35 29° NNE visible
